This demonstration page uses our WeatherBlox Daily Observations layout. Learn more.

Left ArrowRight Arrow

34.74481, -87.66753

Hourly Observations for February 14, 2021

Temp ( °F °C ) Dew Point ( °F °C ) Humidity (%) Winds ( mph kmh ) Pressure ( in mb ) Visibility ( mi km ) Precip ( " mm )
12:53 am 00:53 Cloudy 29 -1.7 21 -6.1 72 72 NNE 10 17 30.17 1022 7 11 0.00 0.00
1:53 am 01:53 Cloudy with Haze 29 -1.7 21 -6.1 72 72 NNE 10 17 30.17 1022 6 10 0.00 0.00
2:53 am 02:53 Cloudy with Haze 28 -2.2 20 -6.7 72 72 N 8 13 30.17 1022 6 10 0.00 0.00
3:53 am 03:53 Cloudy with Haze 28 -2.2 20 -6.7 72 72 NNE 9 15 30.15 1021 6 10 0.00 0.00
4:53 am 04:53 Cloudy with Haze 28 -2.2 20 -6.7 72 72 N 10 17 30.16 1021 6 10 0.00 0.00
5:53 am 05:53 Cloudy with Haze 27 -2.8 20 -6.7 75 75 N 6 9 30.17 1022 5 8 0.00 0.00
6:53 am 06:53 Cloudy with Haze 27 -2.8 20 -6.7 75 75 NNE 10 17 30.17 1022 5 8 0.00 0.00
7:50 am 07:50 Cloudy with Haze 27 -3 19 -7 74 74 NNE 12 19 30.21 1023 4 6 0.00 0.00
7:53 am 07:53 Cloudy with Haze 27 -2.8 20 -6.7 75 75 N 10 17 30.18 1022 4 6 0.00 0.00
8:53 am 08:53 Cloudy with Haze 28 -2.2 20 -6.7 72 72 N 6 9 30.19 1022 5 8 0.00 0.00
9:15 am 09:15 Cloudy with Haze 28 -2.2 20 -6.7 72 72 N 8 13 30.20 1023 5 8 0.00 0.00
9:53 am 09:53 Cloudy with Haze 29 -1.7 21 -6.1 72 72 NNE 9 15 30.18 1022 6 10 0.00 0.00
10:53 am 10:53 Cloudy with Haze 29 -1.7 21 -6.1 72 72 VRB 7 11 30.22 1023 6 10 0.00 0.00
11:53 am 11:53 Cloudy with Haze 29 -1.7 21 -6.1 72 72 NNE 10 17 30.16 1021 4 6 0.00 0.00
12:53 pm 12:53 Cloudy with Haze 30 -1.1 22 -5.6 72 72 N 9 15 30.16 1021 6 10 0.00 0.00
1:53 pm 13:53 Cloudy with Haze 30 -1.1 22 -5.6 72 72 NNE 10 17 30.14 1021 5 8 0.00 0.00
2:53 pm 14:53 Cloudy with Haze 30 -1.1 22 -5.6 72 72 NNE 10 17 30.13 1020 5 8 0.00 0.00
3:53 pm 15:53 Cloudy with Haze 30 -1.1 22 -5.6 72 72 NNE 9 15 30.13 1020 6 10 0.00 0.00
4:53 pm 16:53 Cloudy with Haze 30 -1.1 23 -5 75 75 NNE 8 13 30.13 1020 6 10 0.00 0.00
5:53 pm 17:53 Cloudy 30 -1.1 22 -5.6 72 72 VRB 7 11 30.14 1021 7 11 0.00 0.00
6:22 pm 18:22 Cloudy with Light Freezing Rain 30 -1.1 23 -5 75 75 N 9 15 30.16 1021 5 8 0.00 0.00
6:45 pm 18:45 Cloudy with Haze 29 -1.7 23 -5 78 78 N 8 13 30.17 1022 5 8 0.00 0.00
6:53 pm 18:53 Cloudy with Haze 29 -1.7 23 -5 78 78 N 7 11 30.15 1021 5 8 0.00 0.00
7:53 pm 19:53 Cloudy with Light Freezing Rain 29 -1.7 22 -5.6 75 75 NNE 12 19 30.16 1021 5 8 0.00 0.00
8:04 pm 20:04 Cloudy with Freezing Rain 29 -1.7 22 -5.6 75 75 NE 9 15 30.18 1022 3 5 0.02 0.51
8:14 pm 20:14 Cloudy with Freezing Rain 29 -1.7 22 -5.6 75 75 NE 10 17 30.19 1022 3 4 0.04 1.02
8:16 pm 20:16 Cloudy with Light Freezing Rain 29 -1.7 22 -5.6 75 75 NE 10 17 30.19 1022 3 5 0.04 1.02
8:32 pm 20:32 Cloudy 29 -1.7 22 -5.6 75 75 NNE 10 17 30.18 1022 5 8 0.04 1.02
8:42 pm 20:42 Cloudy with Freezing Rain 29 -1.7 23 -5 78 78 NE 12 19 30.18 1022 3 4 0.04 1.02
8:49 pm 20:49 Cloudy with Light Freezing Rain 28 -2 23 -5 80 80 NNE 8 13 30.17 1022 3 4 0.05 1.27
8:53 pm 20:53 Cloudy with Freezing Rain 29 -1.7 23 -5 78 78 NNE 12 19 30.15 1021 3 4 0.05 1.27
8:55 pm 20:55 Cloudy with Light Freezing Rain 29 -1.7 23 -5 78 78 NNE 8 13 30.18 1022 3 5 0.00 0.00
9:13 pm 21:13 Cloudy with Haze 29 -1.7 22 -5.6 75 75 NNE 9 15 30.17 1022 6 10 0.00 0.00
9:33 pm 21:33 Cloudy with Light Freezing Rain 30 -1.1 23 -5 75 75 NNE 10 17 30.17 1022 6 10 0.01 0.25
9:53 pm 21:53 Cloudy 30 -1.1 23 -5 75 75 NNE 8 13 30.16 1021 6 10 0.01 0.25
10:18 pm 22:18 Cloudy with Light Freezing Rain 30 -1.1 22 -5.6 72 72 NNE 8 13 30.16 1021 6 10 0.00 0.00
10:30 pm 22:30 Cloudy 29 -1.7 22 -5.6 75 75 N 8 13 30.16 1021 7 11 0.00 0.00
10:53 pm 22:53 Cloudy 29 -1.7 22 -5.6 75 75 N 9 15 30.13 1020 7 11 0.00 0.00
11:53 pm 23:53 Cloudy 29 -1.7 22 -5.6 75 75 N 6 9 30.15 1021 8 13 0.00 0.00

Powered by AerisWeather